• Join FlightAware (Why Join?)
  • Login
  • US Flag 
08:51PM EDT


 

Airport Tracker/Info


-or-


 

Live Flight TrackerFlight Track Log ✈ UAL582 ✈ 11-Apr-2013 ✈ CYYZ - KORD

Flight Track Log - Related Links

Times and Time Zones

All times are in EDT time to prevent confusion due to time zone crossing. See the UAL582 flight status page for this flight to view local times or setup timezone preferences in your user account.

Time Position Orientation Groundspeed Altitude Reporting Facility
EDT Latitude Longitude Course Direction KTS MPH feet Rate Location/Type
07:42PM 43.6667 -79.5667 36° Northeast 100 115 1,400  Level Toronto Center
07:43PM 43.7000 -79.5333 36° Northeast 190 219 3,500 2,040 Climbing Toronto Center
07:44PM 43.7167 -79.4500 75° East 220 253 5,500 2,100 Climbing Toronto Center
07:45PM 43.6667 -79.3833 136° Southeast 290 334 7,700 2,520 Climbing Toronto Center
07:46PM 43.6000 -79.4333 209° Southwest 260 299 10,600 2,160 Climbing Toronto Center
07:47PM 43.6167 -79.5333 283° West 310 357 12,100 1,860 Climbing Toronto Center
07:48PM 43.6333 -79.6833 279° West 350 403 14,400 2,460 Climbing Toronto Center
07:50PM 43.6667 -79.9333 281° West 360 414 19,600 2,700 Climbing Toronto Center
07:51PM 43.6833 -80.0667 280° West 360 414 22,500 1,680 Climbing Toronto Center
07:52PM 43.7000 -80.2167 279° West 350 403 23,000 240 Climbing Toronto Center
07:53PM 43.7167 -80.3500 280° West 360 414 23,000 420 Level Toronto Center
07:54PM 43.7333 -80.4833 280° West 360 414 23,900 1,320 Climbing Toronto Center
07:55PM 43.7333 -80.6000 270° West 350 403 25,700 1,200 Climbing Toronto Center
07:56PM 43.7000 -80.7333 251° West 360 414 26,300 600 Climbing Toronto Center
07:57PM 43.6500 -80.9000 248° West 390 449 26,900 780 Climbing Toronto Center
07:58PM 43.6167 -81.0333 251° West 400 460 27,900 1,200 Climbing Toronto Center
07:59PM 43.5833 -81.2000 255° West 410 472 29,400 1,320 Climbing Toronto Center
08:00PM 43.5667 -81.3333 260° West 400 460 30,600 1,200 Climbing Toronto Center
08:01PM 43.5333 -81.4667 251° West 400 460 31,900 660 Climbing Toronto Center
08:02PM 43.5000 -81.6167 253° West 390 449 32,000  Climbing Toronto Center
08:03PM 43.4667 -81.7667 253° West 390 449 32,000  Level Toronto Center
08:05PM 43.4158 -82.0436 256° West 403 464 32,000  Level Cleveland Center
08:06PM 43.3806 -82.1828 251° West 403 464 32,000  Level Cleveland Center
08:07PM 43.3472 -82.3244 252° West 403 464 32,000  Level Cleveland Center
08:08PM 43.3139 -82.4692 252° West 403 464 32,000  Level Cleveland Center
08:09PM 43.2822 -82.6108 253° West 403 464 32,000  Level Cleveland Center
08:10PM 43.2464 -82.7519 251° West 403 464 32,000  Level Cleveland Center
08:11PM 43.2061 -82.8931 249° West 403 464 32,000  Level Cleveland Center
08:12PM 43.1678 -83.0339 250° West 403 464 32,000  Level Cleveland Center
08:13PM 43.1292 -83.1747 249° West 403 464 32,000  Level Cleveland Center
08:14PM 43.0883 -83.3181 249° West 403 464 32,000  Level Cleveland Center
08:15PM 43.0494 -83.4614 250° West 408 470 32,000  Level Cleveland Center
08:16PM 43.0086 -83.5956 247° West 408 470 32,000  Level Cleveland Center
08:17PM 42.9692 -83.7414 250° West 408 470 32,000  Level Cleveland Center
08:18PM 42.9503 -83.8936 260° West 408 470 32,000  Level Cleveland Center
08:19PM 42.9375 -84.0461 264° West 408 470 32,000  Level Cleveland Center
08:20PM 42.9225 -84.1956 262° West 408 470 32,000  Level Cleveland Center
08:21PM 42.9072 -84.3533 263° West 402 463 32,000  Level Cleveland Center
08:22PM 42.8939 -84.4972 263° West 397 457 32,000  Level Cleveland Center
08:22PM 42.8881 -84.5467 261° West 387 445 32,000 -120 Level Chicago Center
08:23PM 42.8733 -84.6894 262° West 381 438 31,900  Descending Chicago Center
08:24PM 42.8581 -84.8336 262° West 384 442 32,000  Climbing Chicago Center
08:25PM 42.8431 -84.9778 262° West 386 444 32,000  Level Chicago Center
08:27PM 42.8275 -85.1242 262° West 390 449 32,000  Level Chicago Center
08:28PM 42.8111 -85.2769 262° West 403 464 32,000  Level Chicago Center
08:29PM 42.7947 -85.4292 262° West 407 468 32,000 -720 Level Chicago Center
08:30PM 42.7661 -85.6119 258° West 410 472 30,600 -2,220 Descending Chicago Center
08:31PM 42.7375 -85.7642 256° West 413 475 27,500 -2,760 Descending Chicago Center
08:32PM 42.7119 -85.9108 257° West 402 463 25,000 -2,400 Descending Chicago Center
08:33PM 42.6869 -86.0492 256° West 383 441 22,600 -2,340 Descending Chicago Center
08:34PM 42.6622 -86.1817 256° West 368 423 20,200 -1,260 Descending Chicago Center
08:35PM 42.6378 -86.3144 256° West 363 418 20,000 -120 Descending Chicago Center
08:36PM 42.6139 -86.4383 255° West 343 395 20,000 -1,380 Level Chicago Center
08:37PM 42.5850 -86.5892 255° West 343 395 17,200 -2,520 Descending Chicago Center
08:38PM 42.5622 -86.7214 257° West 360 414 14,800 -1,740 Descending Chicago Center
08:39PM 42.5306 -86.8411 250° West 341 392 13,700 -1,260 Descending Chicago Center
08:40PM 42.5014 -86.9447 249° West 301 346 12,200 -1,440 Descending Chicago Center
08:41PM 42.4733 -87.0439 249° West 286 329 10,800 -1,260 Descending Chicago Center
08:42PM 42.4472 -87.1361 249° West 266 306 9,600 -900 Descending Chicago Center
08:43PM 42.4189 -87.2442 250° West 257 296 9,000 -300 Descending Chicago Center
08:44PM 42.3931 -87.3344 249° West 258 297 9,000  Level Chicago Center
08:45PM 42.3336 -87.3625 199° South 259 298 9,000  Level Chicago Center
08:46PM 42.2589 -87.3508 173° South 256 295 9,000 -720 Level Chicago Center
08:47PM 42.1911 -87.3408 174° South 248 285 7,600 -1,020 Descending Chicago Center
08:48PM 42.1219 -87.3300 173° South 249 287 7,000 -300 Descending Chicago Center
08:49PM 42.0575 -87.3200 173° South 236 272 7,100  Climbing Chicago Center
08:50PM 41.9958 -87.3300 187° South 207 238 7,000 -60 Descending Chicago Center
08:51PM 41.9833 -87.4000 257° West 219 252 7,000 -60 Level Chicago TRACON
08:52PM 41.9833 -87.4667 270° West 220 253 6,900 -600 Descending Chicago TRACON
08:53PM 41.9833 -87.5500 270° West 218 251 5,800 -1,020 Descending Chicago TRACON
08:54PM 41.9833 -87.6167 270° West 187 215 4,900 -1,020 Descending Chicago TRACON